This is the latest recevied weather packets stored in our database for station/object 4S6DRJ-13. If no packets are shown the sender has not sent any weather packets the latest 10 day(s).
| Time | Temp. | Humidity | Pressure | Rain* | Wind** | Luminosity | Snow |
|---|---|---|---|---|---|---|---|
| 1787894340 | 30.56° C | 76% | 1010.9 hPa | 0 mm | 3.58 m/s, 169° | 1109 W/m² | - |
| 1787894279 | 30.56° C | 77% | 1010.9 hPa | 0 mm | 1.34 m/s, 189° | 732 W/m² | - |
| 1787894219 | 30° C | 77% | 1010.9 hPa | 0 mm | 1.79 m/s, 180° | 466 W/m² | - |
| 1787894157 | 30° C | 78% | 1010.9 hPa | 0 mm | 1.34 m/s, 5° | 1109 W/m² | - |
| 1787894096 | 30° C | 78% | 1011 hPa | 0 mm | 3.13 m/s, 203° | 1127 W/m² | - |
| 1787894036 | 30° C | 78% | 1010.9 hPa | 0 mm | 3.58 m/s, 249° | 1126 W/m² | - |
| 1787893974 | 30° C | 78% | 1010.9 hPa | 0 mm | 0.89 m/s, 259° | 423 W/m² | - |
| 1787893913 | 30° C | 78% | 1011 hPa | 0 mm | 1.34 m/s, 216° | 606 W/m² | - |
| 1787893852 | 30° C | 78% | 1010.7 hPa | 0 mm | 4.02 m/s, 226° | 1137 W/m² | - |
| 1787893791 | 30° C | 78% | 1010.9 hPa | 0 mm | 3.58 m/s, 231° | 474 W/m² | - |
| 1787893730 | 30° C | 78% | 1010.9 hPa | 0 mm | 2.24 m/s, 185° | 965 W/m² | - |
| 1787893670 | 30° C | 77% | 1011 hPa | 0 mm | 1.79 m/s, 213° | 784 W/m² | - |
| 1787893609 | 30° C | 77% | 1011 hPa | 0 mm | 3.13 m/s, 200° | 425 W/m² | - |
| 1787893548 | 30° C | 77% | 1011 hPa | 0 mm | 2.68 m/s, 212° | 474 W/m² | - |
| 1787893487 | 30° C | 77% | 1010.9 hPa | 0 mm | 2.24 m/s, 222° | 952 W/m² | - |
| 1787893425 | 30° C | 77% | 1011.1 hPa | 0 mm | 1.34 m/s, 231° | 492 W/m² | - |
| 1787893365 | 30° C | 77% | 1011 hPa | 0 mm | 2.24 m/s, 198° | 732 W/m² | - |
| 1787893303 | 30° C | 78% | 1011 hPa | 0 mm | 1.79 m/s, 176° | 988 W/m² | - |
| 1787893243 | 30° C | 78% | 1011 hPa | 0 mm | 0.89 m/s, 240° | 395 W/m² | - |
| 1787893182 | 30° C | 78% | 1011 hPa | 0 mm | 1.34 m/s, 240° | 414 W/m² | - |
| 1787893120 | 30° C | 79% | 1011.1 hPa | 0 mm | 0.45 m/s, 254° | 1130 W/m² | - |
| 1787893060 | 30° C | 78% | 1011 hPa | 0 mm | 3.13 m/s, 245° | 538 W/m² | - |
| 1787892999 | 30° C | 78% | 1011 hPa | 0 mm | 1.79 m/s, 339° | 507 W/m² | - |
| 1787892938 | 30° C | 78% | 1011.1 hPa | 0 mm | 2.68 m/s, 204° | 509 W/m² | - |
| 1787892877 | 30° C | 78% | 1011.1 hPa | 0 mm | 3.13 m/s, 226° | 460 W/m² | - |
* Rain latest hour (hover to see other rain measurements)
** Current wind speed in m/s (hover to see current wind gust speed)